Location: Wald
(31.7579°N, 86.6655°W)
Time: 00:12:00
(UTC+00:00)

Cosmos 2221 - Pass Details

Date: 14 July 2020
Orbit: 592 x 617 km, 82.5° (Epoch: 12 August)

Event Time Altitude Azimuth Distance (km) Brightness Sun altitude
Rises 03:29:19 0° 345° (NNW) 2,869 7.0 -26.6°
Reaches altitude 10° 03:31:37 10° 339° (NNW) 1,957 6.0 -26.9°
Enters shadow 03:35:30 43° 277° (W) 849 3.4 -27.3°
